W7KKE-3 Weather Reports


time (UTC)temp
C
wind
direction
speed
KPH
gust
KPH
rain 1hr
cm
rain 24hr
cm
rain mn
cm
humidity
%
barometer
mb
20260502162644 12 340 12.9 20.9 0.00 0.00 0.00 80 1012.2
20260502162144 12 329 6.4 20.9 0.00 0.00 0.00 80 1012.4
20260502161644 12 294 11.3 20.9 0.00 0.00 0.00 80 1012.4
20260502161145 12 331 11.3 16.1 0.00 0.00 0.00 80 1012.4
20260502160643 12 312 9.7 16.1 0.00 0.00 0.00 80 1012.5
20260502152144 12 315 4.8 12.9 0.00 0.00 0.00 81 1012.6
20260502151643 12 319 4.8 12.9 0.00 0.00 0.00 81 1012.6
20260502151144 12 350 6.4 12.9 0.00 0.00 0.00 81 1012.6
20260502150644 12 347 6.4 14.5 0.00 0.00 0.00 81 1012.7
20260502130649 11 329 3.2 16.1 0.00 0.00 0.00 82 1012.6
20260502130643 11 329 3.2 16.1 0.00 0.00 0.00 82 1012.6
20260502123643 11 333 8.0 12.9 0.00 0.00 0.00 82 1012.8
20260502123143 11 316 4.8 12.9 0.00 0.00 0.00 82 1012.7
20260502122644 11 306 3.2 16.1 0.00 0.00 0.00 82 1012.7
20260502122143 11 336 11.3 16.1 0.00 0.00 0.00 82 1012.7
20260502121644 11 310 6.4 16.1 0.00 0.00 0.00 82 1012.7
20260502121146 11 334 11.3 16.1 0.00 0.00 0.00 81 1012.9
20260502120643 11 317 9.7 16.1 0.00 0.00 0.00 81 1012.8
20260502115645 11 316 9.7 17.7 0.00 0.00 0.00 81 1012.8
20260502115143 11 357 1.6 17.7 0.00 0.00 0.00 81 1012.8
20260502114643 11 22 6.4 17.7 0.00 0.00 0.00 81 1012.8
20260502113643 11 340 6.4 9.7 0.00 0.00 0.00 81 1012.8
20260502113143 11 344 4.8 24.1 0.00 0.00 0.00 80 1012.8
20260502112144 11 316 11.3 24.1 0.00 0.00 0.00 80 1012.7
20260502111644 11 338 14.5 22.5 0.00 0.00 0.00 81 1012.8
20260502111144 11 329 4.8 19.3 0.00 0.00 0.00 81 1012.8
20260502110644 11 12 6.4 19.3 0.00 0.00 0.00 81 1012.7
20260502105144 11 327 9.7 22.5 0.00 0.00 0.00 81 1012.8
20260502104643 11 331 8.0 22.5 0.00 0.00 0.00 81 1013.0
20260502104144 11 303 14.5 22.5 0.00 0.00 0.00 81 1013.0
20260502103643 11 337 6.4 22.5 0.00 0.00 0.00 81 1013.0
20260502103215 11 317 12.9 22.5 0.00 0.00 0.00 81 1013.0
20260502103143 11 317 12.9 22.5 0.00 0.00 0.00 81 1013.0
20260502102645 11 343 9.7 24.1 0.00 0.00 0.00 81 1013.1
20260502102143 11 345 11.3 24.1 0.00 0.00 0.00 81 1013.1
20260502101144 11 331 11.3 24.1 0.00 0.00 0.00 81 1013.1
20260502100643 11 319 6.4 24.1 0.00 0.00 0.00 81 1013.2
20260502100143 11 323 8.0 24.1 0.00 0.00 0.00 81 1013.3
20260502091144 11 357 6.4 11.3 0.00 0.00 0.00 81 1013.7
20260502090643 11 343 0.0 11.3 0.00 0.00 0.00 81 1013.8
20260502071144 11 320 11.3 19.3 0.00 0.00 0.00 81 1014.3
20260502070643 11 345 8.0 19.3 0.00 0.00 0.00 81 1014.3
20260502065646 11 330 11.3 17.7 0.00 0.00 0.00 81 1014.3
20260502065144 11 316 9.7 17.7 0.00 0.00 0.00 81 1014.4
20260502064643 11 327 8.0 17.7 0.00 0.00 0.00 81 1014.5
20260502064147 11 1 9.7 17.7 0.00 0.00 0.00 81 1014.4
20260502063735 11 306 11.3 17.7 0.00 0.00 0.00 81 1014.5
20260502063643 11 306 11.3 17.7 0.00 0.00 0.00 81 1014.5
20260502063144 11 343 9.7 17.7 0.00 0.00 0.00 81 1014.5
20260502062643 11 327 11.3 11.3 0.00 0.00 0.00 81 1014.6
20260502062143 11 323 3.2 9.7 0.00 0.00 0.00 81 1014.6
20260502061644 11 329 6.4 20.9 0.00 0.00 0.00 81 1014.6
20260502061144 11 312 9.7 20.9 0.00 0.00 0.00 81 1014.6
20260502060643 11 333 8.0 20.9 0.00 0.00 0.00 81 1014.6
20260502055643 11 315 11.3 17.7 0.00 0.00 0.00 81 1014.7
20260502055144 11 308 9.7 24.1 0.00 0.00 0.00 81 1014.7
20260502054735 11 5 9.7 24.1 0.00 0.00 0.00 81 1014.6
20260502054643 11 5 9.7 24.1 0.00 0.00 0.00 81 1014.6
20260502054144 11 303 9.7 24.1 0.00 0.00 0.00 81 1014.6
20260502053643 11 324 11.3 19.3 0.00 0.00 0.00 81 1014.6
20260502053143 11 336 4.8 19.3 0.00 0.00 0.00 81 1014.6
20260502052643 11 23 11.3 25.7 0.00 0.00 0.00 81 1014.6
20260502052144 11 306 12.9 25.7 0.00 0.00 0.00 81 1014.6
20260502051644 11 331 12.9 25.7 0.00 0.00 0.00 82 1014.6
20260502050644 11 324 8.0 22.5 0.00 0.00 0.00 81 1014.6
20260502045143 11 313 11.3 27.4 0.00 0.00 0.00 81 1014.5
20260502044644 11 315 9.7 29.0 0.00 0.00 0.00 81 1014.4
20260502044146 11 22 16.1 29.0 0.00 0.00 0.00 81 1014.4
20260502043735 11 0 12.9 29.0 0.00 0.00 0.00 81 1014.4
20260502043643 11 0 12.9 29.0 0.00 0.00 0.00 81 1014.4
20260502043143 11 347 16.1 25.7 0.00 0.00 0.00 81 1014.5
20260502042645 11 347 17.7 25.7 0.00 0.00 0.00 82 1014.4
20260502042146 11 334 14.5 25.7 0.00 0.00 0.00 82 1014.4
20260502041644 11 323 12.9 25.7 0.00 0.00 0.00 82 1014.3
20260502041144 11 7 12.9 25.7 0.00 0.00 0.00 82 1014.4
20260502040644 11 310 12.9 22.5 0.00 0.00 0.00 82 1014.4
20260502035643 11 310 12.9 20.9 0.00 0.00 0.00 82 1014.3
20260502035143 11 334 11.3 19.3 0.00 0.00 0.00 82 1014.4
20260502034643 11 334 14.5 19.3 0.00 0.00 0.00 81 1014.3
20260502034146 12 326 12.9 25.7 0.00 0.00 0.00 81 1014.4
20260502033643 11 344 14.5 25.7 0.00 0.00 0.00 81 1014.3
20260502033144 12 334 9.7 25.7 0.00 0.00 0.00 81 1014.3
20260502032645 11 323 12.9 22.5 0.00 0.00 0.00 81 1014.3
20260502032144 12 317 12.9 22.5 0.00 0.00 0.00 82 1014.3
20260502031644 12 303 12.9 22.5 0.00 0.00 0.00 82 1014.3
20260502031145 12 347 14.5 24.1 0.00 0.00 0.00 81 1014.3
20260502030644 12 4 12.9 24.1 0.00 0.00 0.00 81 1014.3
20260502025144 12 348 11.3 22.5 0.00 0.00 0.00 81 1014.2
20260502024643 12 323 14.5 19.3 0.00 0.00 0.00 81 1014.1
20260502024146 12 316 11.3 22.5 0.00 0.00 0.00 81 1014.0
20260502023644 12 329 11.3 22.5 0.00 0.00 0.00 81 1014.0
20260502023145 12 330 11.3 22.5 0.00 0.00 0.00 81 1014.0
20260502022144 12 352 9.7 19.3 0.00 0.00 0.00 82 1014.0
20260502021644 12 323 9.7 19.3 0.00 0.00 0.00 82 1013.9
20260502020643 12 343 11.3 17.7 0.00 0.00 0.00 82 1014.0
20260502020144 12 344 11.3 17.7 0.00 0.00 0.00 82 1014.0
20260502015643 12 327 11.3 25.7 0.00 0.00 0.00 82 1013.9
20260502015144 12 344 12.9 25.7 0.00 0.00 0.00 82 1013.9
20260502014643 12 344 12.9 25.7 0.00 0.00 0.00 82 1014.0
20260502014146 12 326 8.0 22.5 0.00 0.00 0.00 82 1014.0
20260502013643 12 324 11.3 22.5 0.00 0.00 0.00 81 1013.9
20260502013143 12 337 11.3 19.3 0.00 0.00 0.00 82 1014.0
20260502012644 12 344 11.3 25.7 0.00 0.00 0.00 82 1014.0
20260502012144 12 334 11.3 25.7 0.00 0.00 0.00 82 1014.0
20260502011644 12 317 16.1 25.7 0.00 0.00 0.00 82 1014.0
20260502011146 12 4 16.1 24.1 0.00 0.00 0.00 82 1013.9
20260502010643 12 336 12.9 24.1 0.00 0.00 0.00 82 1013.9
20260502010144 12 324 11.3 22.5 0.00 0.00 0.00 82 1013.9
20260502005645 12 305 12.9 22.5 0.00 0.00 0.00 82 1014.0
20260502005144 12 338 12.9 22.5 0.00 0.00 0.00 82 1014.0
20260502004643 13 327 11.3 22.5 0.00 0.00 0.00 82 1014.0
20260502004146 13 357 16.1 22.5 0.00 0.00 0.00 82 1014.0
20260502003643 13 313 9.7 22.5 0.00 0.00 0.00 82 1014.0
20260502003143 13 357 16.1 22.5 0.00 0.00 0.00 82 1014.0
20260502002645 13 322 14.5 24.1 0.00 0.00 0.00 82 1014.0
20260502002143 13 345 11.3 24.1 0.00 0.00 0.00 82 1014.0
20260502001643 13 1 11.3 24.1 0.00 0.00 0.00 81 1014.0
20260502001146 13 4 12.9 19.3 0.00 0.00 0.00 81 1014.1
20260502000643 13 319 9.7 19.3 0.00 0.00 0.00 81 1014.0
20260501235144 13 329 11.3 22.5 0.00 0.00 0.00 81 1014.0
20260501234644 13 330 16.1 17.7 0.00 0.00 0.00 81 1014.1
20260501234146 13 299 8.0 19.3 0.00 0.00 0.00 81 1014.1
20260501233643 13 331 11.3 19.3 0.00 0.00 0.00 81 1014.1
20260501233143 13 327 9.7 19.3 0.00 0.00 0.00 80 1014.1
20260501232643 13 340 9.7 16.1 0.00 0.00 0.00 80 1014.2
20260501232144 13 333 11.3 19.3 0.00 0.00 0.00 80 1014.2
20260501231643 13 334 11.3 19.3 0.00 0.00 0.00 80 1014.2
20260501230644 13 326 12.9 20.9 0.00 0.00 0.00 79 1014.3
20260501225643 13 320 12.9 20.9 0.00 0.00 0.00 79 1014.4
20260501225143 14 333 9.7 19.3 0.00 0.00 0.00 79 1014.5
20260501224643 14 324 11.3 19.3 0.00 0.00 0.00 79 1014.5
20260501224144 14 337 12.9 22.5 0.00 0.00 0.00 79 1014.5
20260501223643 14 317 12.9 22.5 0.00 0.00 0.00 79 1014.5
20260501223144 13 327 14.5 22.5 0.00 0.00 0.00 79 1014.5
20260501222643 14 317 12.9 20.9 0.00 0.00 0.00 79 1014.5
20260501222144 14 313 16.1 24.1 0.00 0.00 0.00 79 1014.6
20260501221644 14 324 14.5 24.1 0.00 0.00 0.00 79 1014.6
20260501221146 14 330 12.9 24.1 0.00 0.00 0.00 79 1014.7
20260501220644 14 317 11.3 20.9 0.00 0.00 0.00 79 1014.7
20260501220143 14 319 11.3 20.9 0.00 0.00 0.00 79 1014.6
20260501215643 14 322 12.9 20.9 0.00 0.00 0.00 79 1014.7
20260501215142 14 338 11.3 20.9 0.00 0.00 0.00 79 1014.7
20260501214642 14 313 11.3 20.9 0.00 0.00 0.00 79 1014.7
20260501213642 14 333 11.3 24.1 0.00 0.00 0.00 80 1014.8
20260501213143 14 343 11.3 24.1 0.00 0.00 0.00 80 1014.8
20260501212643 14 329 11.3 22.5 0.00 0.00 0.00 80 1014.8
20260501212143 14 331 14.5 22.5 0.00 0.00 0.00 80 1014.9
20260501211644 14 324 11.3 22.5 0.00 0.00 0.00 79 1014.8
20260501211145 14 331 14.5 20.9 0.00 0.00 0.00 79 1014.8
20260501210644 14 351 11.3 20.9 0.00 0.00 0.00 80 1014.8
20260501210144 14 292 11.3 19.3 0.00 0.00 0.00 79 1014.8
20260501205643 14 330 11.3 16.1 0.00 0.00 0.00 79 1014.7
20260501205144 14 323 9.7 16.1 0.00 0.00 0.00 79 1014.8
20260501204645 14 331 9.7 16.1 0.00 0.00 0.00 79 1014.8
20260501204146 14 330 9.7 16.1 0.00 0.00 0.00 79 1014.9
20260501203644 14 309 8.0 17.7 0.00 0.00 0.00 78 1014.8
20260501202645 14 326 11.3 17.7 0.00 0.00 0.00 78 1014.9
20260501202144 14 310 9.7 19.3 0.00 0.00 0.00 78 1014.9
20260501201642 14 317 11.3 19.3 0.00 0.00 0.00 78 1014.8
20260501201146 14 320 11.3 19.3 0.00 0.00 0.00 78 1014.8
20260501200644 14 308 14.5 25.7 0.00 0.00 0.00 77 1014.8
20260501200143 14 329 12.9 25.7 0.00 0.00 0.00 77 1014.8
20260501195144 14 315 12.9 22.5 0.00 0.00 0.00 78 1014.8
20260501194146 14 323 8.0 22.5 0.00 0.00 0.00 78 1014.9
20260501193642 15 315 11.3 20.9 0.00 0.00 0.00 78 1014.9
20260501193143 15 313 9.7 19.3 0.00 0.00 0.00 78 1014.9
20260501192643 15 309 14.5 19.3 0.00 0.00 0.00 77 1014.9
20260501192144 15 313 11.3 19.3 0.00 0.00 0.00 78 1014.9
20260501191644 15 329 11.3 20.9 0.00 0.00 0.00 77 1014.9
20260501191146 15 327 12.9 20.9 0.00 0.00 0.00 77 1015.0
20260501190642 15 315 11.3 20.9 0.00 0.00 0.00 78 1015.1
20260501190144 15 345 14.5 19.3 0.00 0.00 0.00 78 1015.2
20260501185643 15 347 12.9 17.7 0.00 0.00 0.00 78 1015.1
20260501185143 15 322 12.9 19.3 0.00 0.00 0.00 78 1015.1
20260501184644 15 333 11.3 19.3 0.00 0.00 0.00 78 1015.1
20260501184146 15 341 9.7 19.3 0.00 0.00 0.00 78 1015.1
20260501183643 15 336 12.9 22.5 0.00 0.00 0.00 80 1015.1
20260501183142 14 7 12.9 22.5 0.00 0.00 0.00 80 1015.0
20260501182643 14 322 12.9 22.5 0.00 0.00 0.00 80 1015.0
20260501182144 14 329 14.5 20.9 0.00 0.00 0.00 80 1014.9
20260501181642 13 316 11.3 20.9 0.00 0.00 0.00 81 1015.0
20260501181146 13 323 12.9 20.9 0.00 0.00 0.00 81 1014.9
20260501180643 13 312 12.9 16.1 0.00 0.00 0.00 81 1014.9
20260501180144 13 309 6.4 11.3 0.00 0.00 0.00 82 1014.9
20260501175644 13 302 6.4 11.3 0.00 0.00 0.00 82 1014.9
20260501175143 13 341 6.4 11.3 0.00 0.00 0.00 82 1014.9
20260501174642 13 303 8.0 11.3 0.00 0.00 0.00 82 1014.9
20260501173642 13 316 4.8 14.5 0.00 0.00 0.00 82 1014.9
20260501173142 13 331 8.0 14.5 0.00 0.00 0.00 82 1014.8
20260501172644 13 329 6.4 14.5 0.00 0.00 0.00 81 1014.8
20260501172144 13 303 4.8 14.5 0.00 0.00 0.00 81 1014.8
20260501171643 13 306 9.7 14.5 0.00 0.00 0.00 81 1014.8
20260501171143 13 1 9.7 22.5 0.00 0.00 0.00 81 1014.7
20260501170644 13 326 12.9 22.5 0.00 0.00 0.00 81 1014.5
20260501170144 13 341 12.9 22.5 0.00 0.00 0.00 80 1014.4
20260501165645 13 313 11.3 19.3 0.00 0.00 0.00 80 1014.3
20260501165142 13 327 14.5 24.1 0.00 0.00 0.00 81 1014.3
20260501164642 13 338 12.9 24.1 0.00 0.00 0.00 81 1014.3
20260501164145 13 336 8.0 24.1 0.00 0.00 0.00 81 1014.2
20260501163143 13 295 8.0 17.7 0.00 0.00 0.00 81 1014.3